INGVCENTRO​NAZIONALE​TERREMOTI
Sala Sismica

Terremoto di magnitudo ML 3.9 del 04-02-2013 ore 05:29:45 (Italia) in zona: Costa Croata meridionale (CROAZIA)

Un terremoto di magnitudo ML 3.9 è avvenuto nella zona: Costa Croata meridionale (CROAZIA), il

  • 04-02-2013 04:29:45 (UTC)
  • 04-02-2013 05:29:45 (UTC +01:00) ora italiana

con coordinate geografiche (lat, lon) 43.6, 16.53 ad una profondità di 10 km.

Il terremoto è stato localizzato da: Sala Sismica INGV-Roma.

Ricerca terremoti: Qualsiasi nel raggio di 30 km

I valori delle coordinate ipocentrali e della magnitudo rappresentano la migliore stima con i dati a disposizione. Eventuali nuovi dati o analisi potrebbero far variare tali stime.

Visualizza la localizzazione con

Comuni entro 20 km dall'epicentro

Nessun comune italiano entro 20 km dall'epicentro.

Città più vicine con almeno 50000 abitanti

Nessun comune italiano entro 100 km dall'epicentro con almeno 50000 abitanti.

Sismicità recente e storica
Pericolosità sismica
Mappe di scuotimento
Mappa del risentimento sismico
Cronologia delle localizzazioni calcolate
Tipo Magnitudo Tempo origine (UTC) Latitudine Longitudine Profondità (km) Ora pubblicazione (UTC) Autore ID Localizzazione
Rev 100 ML 3.9 2013-02-04
04:29:45
43.6 16.53 10 2014-10-21
12:08:56
Sala Sismica INGV-Roma 2919331
Localizzazione e magnitudo preferite finora.
Parametri della localizzazione preferita

Localizzazione

Campo Valore
Tempo (UTC) 2013-02-04 04:29:45 ± 0.3
Latitudine 43.60 ± 0.02
Longitudine 16.53 ± 0.07
Profondità (km) 10 (operator assigned)
Metodo di valutazione manual
Stato della valutazione reviewed
Versione 100 -> SURVEY-INGV
Tipo di evento earthquake
ID localizzazione 2919331

Incertezze

Campo Valore
Tipo di incertezza uncertainty ellipse
Semi-asse maggiore dell'ellisse di confidenza (metri) 6000
Semi-asse minore dell'ellisse di confidenza (metri) 1920
azimuth dell’asse maggiore dell’ellisse di confidenza (gradi) 284
Regione di confidenza sul piano orizzontale espressa mediante singolo valore di incertezza (metri) 6000
Livello di confidenza dell'incertezza (%) 68

Qualità

Campo Valore
Maggiore gap azimutale nella distribuzione delle stazioni all'epicentro 172
Numero di fasi associato indipendentemente se utilizzate nella localizazzione (determinazione dell'Origin') 77
Numero di fasi 8
Scarto quadratico medio dei residui di tempo risultanti dal calcolo del tempo origine (Origin) della localizzazione (sec) 0.43
Distanza epicentrale della stazione piu' vicina (gradi) 0
Distanza epicentrale della stazione piu’ lontana (gradi) 2.7879
Numero di stazioni in cui l’evento e’ stato osservato 72
Numero di stazioni usate nel calcolo dell'Origin 4
Parametri della magnitudo

ML:3.9

Campo Valore
Valore 3.9
Incertezza 0.3
Num. stazioni usate 64
Tipo di magnitudo ML
Localizzazione di riferimento 2919331
Agenzia INGV
Autore Sala Sismica INGV-Roma
Tempo di creazione (UTC) 2013-02-04 04:44:10
Tempi di arrivo
SCNL Time Uncertainty Polarity Evaluation_mode Phase Azimuth Distance Takeoff_angle Residual Weight
HL.VLS.HHZ. 2013-02-04T04:31:19.01 3.0 negative manual Pn -0.25 0
SL.LJU.BHZ. 2013-02-04T04:31:11.99 3.0 undecidable manual Sg 2.7879 4.01 0
IV.ILLI.HHZ. 2013-02-04T04:31:06.47 3.0 positive manual Pn 0.13 0
CH.FUORN.HHZ. 2013-02-04T04:31:06.36 3.0 negative manual Pn -0.2 0
SI.MOSI.HHZ. 2013-02-04T04:31:05.37 3.0 negative manual Pn 1.13 0
MN.VTS.BHZ. 2013-02-04T04:31:04.80 3.0 positive manual Pn 2.68 0
SI.ROSI.HHZ. 2013-02-04T04:31:03.30 3.0 negative manual Pn 3.05 0
IV.MABI.HHZ. 2013-02-04T04:30:59.53 3.0 negative manual Pn -1.13 0
IV.PLMA.HHZ. 2013-02-04T04:30:59.18 3.0 undecidable manual Pn -0.61 0
SI.ABSI.HHZ. 2013-02-04T04:30:58.70 3.0 positive manual Pn -0.48 0
IV.APPI.EHZ. 2013-02-04T04:30:56.65 3.0 positive manual Pn -1.19 0
IV.MAGA.HHZ. 2013-02-04T04:30:56.34 3.0 negative manual Pn -1.64 0
SI.KOSI.HHZ. 2013-02-04T04:30:55.60 3.0 positive manual Pn -0.95 0
SI.RISI.HHZ. 2013-02-04T04:30:55.37 3.0 undecidable manual Pn -0.44 0
IV.ROVR.HHZ. 2013-02-04T04:30:52.18 3.0 positive manual Pn -1.18 0
NI.FERB.HHZ. 2013-02-04T04:30:51.37 3.0 positive manual Pn 6 0
SL.BOJS.BHZ. 2013-02-04T04:30:48.65 1.0 undecidable manual S 335 2.1143 38 0.43 15
IV.PTF.SHZ. 2013-02-04T04:30:47.16 3.0 undecidable manual Pn -0.52 0
IV.SCTE.HHZ. 2013-02-04T04:30:45.77 3.0 positive manual Pn -0.29 0
IV.STAL.HHZ. 2013-02-04T04:30:44.15 3.0 negative manual Pn -0.8 0
NI.ACOM.HHZ. 2013-02-04T04:30:43.26 3.0 positive manual Pn 0.55 0
IV.SGRT.HHZ. 2013-02-04T04:30:43.74 1.0 undecidable manual S 198 1.929 38 -0.04 18
IV.RUFI.EHZ. 2013-02-04T04:30:43.02 3.0 undecidable manual Pn -0.22 0
NI.POLC.HHZ. 2013-02-04T04:30:43.55 3.0 negative manual Pn -0.84 0
IV.PTCC.HHZ. 2013-02-04T04:30:41.57 3.0 negative manual Pn -0.59 0
IV.ASQU.HHZ. 2013-02-04T04:30:40.58 3.0 positive manual Pn 0.13 0
IV.CRE.HHZ. 2013-02-04T04:30:39.26 3.0 negative manual Pn 0.41 0
IV.CDRU.HHZ. 2013-02-04T04:30:38.13 3.0 undecidable manual Pn -0.1 0
IV.CAFI.HHZ. 2013-02-04T04:30:37.66 3.0 negative manual Pn -1.36 0
IV.ATMC.EHZ. 2013-02-04T04:30:37.10 3.0 positive manual Pn 0.51 0
AC.PUK.HHZ. 2013-02-04T04:30:36.32 3.0 negative manual Pn 2.66 0
IV.BADI.EHZ. 2013-02-04T04:30:36.19 3.0 positive manual Pn 0.18 0
IV.CERT.HHZ. 2013-02-04T04:30:35.98 3.0 positive manual Pn 0.05 0
NI.SABO.HHZ. 2013-02-04T04:30:35.14 3.0 positive manual Pn -0.93 0
IV.ATTE.HHZ. 2013-02-04T04:30:35.68 3.0 negative manual Pn 0.25 0
IV.ARRO.EHZ. 2013-02-04T04:30:35.37 3.0 positive manual Pn 1.6 0
IV.ATVO.HHZ. 2013-02-04T04:30:34.03 3.0 positive manual Pn -0.52 0
IV.MRB1.HHZ. 2013-02-04T04:30:34.48 3.0 positive manual Pg 3.23 0
IV.MURB.HHZ. 2013-02-04T04:30:34.29 3.0 negative manual Pn 0.7 0
IV.ATCC.EHZ. 2013-02-04T04:30:33.48 3.0 negative manual P 0.85 0
IV.ACER.HHZ. 2013-02-04T04:30:33.45 3.0 negative manual Pn 0.61 0
IV.FIAM.HHZ. 2013-02-04T04:30:33.55 3.0 positive manual Pn 1.12 0
IV.SNAL.HHZ. 2013-02-04T04:30:33.16 3.0 negative manual Pn 0.33 0
IV.ASSB.HHZ. 2013-02-04T04:30:32.87 3.0 negative manual Pn 0.02 0
IV.ATFO.HHZ. 2013-02-04T04:30:32.33 3.0 negative manual P -0.6 0
IV.PE3.EHZ. 2013-02-04T04:30:32.30 3.0 positive manual Pn -1.1 0
IV.NOCI.HHZ. 2013-02-04T04:30:31.51 3.0 negative manual Pn -1.23 0
IV.FOSV.EHZ. 2013-02-04T04:30:31.81 3.0 negative manual P 0.63 0
SL.KOGS.BHZ. 2013-02-04T04:30:31.34 3.0 negative manual Pn -0.49 0
IV.PIEI.HHZ. 2013-02-04T04:30:31.72 3.0 negative manual Pn -1.37 0
IV.VAGA.HHZ. 2013-02-04T04:30:31.28 3.0 negative manual Pn -0.35 0
IV.FRON.EHZ. 2013-02-04T04:30:30.07 3.0 negative manual Pn -1.13 0
SL.LJU.BHZ. 2013-02-04T04:30:30.61 3.0 undecidable manual Pn 2.7879 -0.93 0
IV.CESI.HHZ. 2013-02-04T04:30:30.01 3.0 positive manual P -0.56 0
IV.VVLD.HHZ. 2013-02-04T04:30:30.19 3.0 positive manual P -1.16 0
IV.SNTG.HHZ. 2013-02-04T04:30:29.94 3.0 negative manual P 0.45 0
IV.MPAG.EHZ. 2013-02-04T04:30:29.40 3.0 positive manual Pn -1.39 0
IV.LNSS.HHZ. 2013-02-04T04:30:29.60 3.0 negative manual P -1.47 0
IV.PESA.HHZ. 2013-02-04T04:30:29.54 3.0 positive manual Pn -0.58 0
MN.PDG.HHZ. 2013-02-04T04:30:28.26 3.0 undecidable manual Pn 2.89 0
IV.FDMO.HHZ. 2013-02-04T04:30:27.29 3.0 positive manual P -1.39 0
IV.ARVD.HHZ. 2013-02-04T04:30:27.41 3.0 undecidable manual P -1.66 0
MN.DIVS.BHZ. 2013-02-04T04:30:27.40 3.0 positive manual Pn -0.77 0
IV.MIDA.HHZ. 2013-02-04T04:30:27.49 3.0 undecidable manual Pn -1.56 0
IV.SMA1.EHZ. 2013-02-04T04:30:26.48 3.0 negative manual P -1.7 0
MN.BLY.HHZ. 2013-02-04T04:30:26.47 1.0 undecidable manual S 22 1.2438 50 1.04 19
IV.LPEL.HHZ. 2013-02-04T04:30:26.92 3.0 positive manual P 1.45 0
IV.EL6.EHZ. 2013-02-04T04:30:26.10 3.0 negative manual P -1.63 0
IV.FAGN.HHZ. 2013-02-04T04:30:26.88 3.0 positive manual P -1.52 0
IV.CING.HHZ. 2013-02-04T04:30:25.48 3.0 positive manual Pn -1.24 0
IV.SENI.EHZ. 2013-02-04T04:30:25.21 3.0 negative manual P -0.85 0
IV.CAMP.HHZ. 2013-02-04T04:30:25.75 3.0 undecidable manual Pn -2.32 0
SL.BOJS.BHZ. 2013-02-04T04:30:21.78 0.1 undecidable manual P 335 2.1143 38 -0.09 64
IV.MSAG.HHZ. 2013-02-04T04:30:20.90 0.6 positive manual P 194 1.9371 38 0.74 30
IV.SGRT.HHZ. 2013-02-04T04:30:18.61 0.1 undecidable manual P 198 1.929 38 -0.7 62
MN.BLY.HHZ. 2013-02-04T04:30:08.41 0.1 negative manual P 22 1.2438 50 -0.3 100
Ampiezza e Magnitudo per ciascuna stazione
SCNL mag Generic_amplitude Period Type Category Unit Time_window_reference
SI.ABSI.HHE. ML:4.5 0.000718 0.98 AML other m 2013-02-04T04:32:25.88
SI.ABSI.HHN. ML:4.6 0.0008755 0.82 AML other m 2013-02-04T04:32:26.62
IV.ACER.HHN. ML:4.2 0.001985 0.88 AML other m 2013-02-04T04:31:38.33
IV.ACER.HNN. ML:4.2 0.001945 0.9 AML other m 2013-02-04T04:31:38.33
IV.ACER.HNE. ML:4.4 0.00269 0.98 AML other m 2013-02-04T04:31:35.56
IV.ACER.HHE. ML:4.4 0.002745 0.98 AML other m 2013-02-04T04:31:35.56
NI.ACOM.HHN. ML:4.4 0.0013035 1.06 AML other m 2013-02-04T04:31:46.40
NI.ACOM.HHE. ML:4.6 0.002 1.22 AML other m 2013-02-04T04:31:50.81
IV.APPI.EHN. ML:4.2 0.0004415 0.76 AML other m 2013-02-04T04:32:24.23
IV.APPI.EHE. ML:4.3 0.000465 0.68 AML other m 2013-02-04T04:32:32.95
IV.ARRO.EHN. ML:3.6 0.000357 1.08 AML other m 2013-02-04T04:31:32.79
IV.ARRO.EHE. ML:3.5 0.000344 1.14 AML other m 2013-02-04T04:31:45.63
IV.ARVD.HHN. ML:3.4 0.0003525 1.14 AML other m 2013-02-04T04:30:59.50
IV.ARVD.HHE. ML:3.4 0.000302 0.98 AML other m 2013-02-04T04:31:20.72
IV.ASQU.HHN. ML:3.9 0.0004855 1.04 AML other m 2013-02-04T04:31:25.13
IV.ASQU.HHE. ML:3.8 0.000381 0.92 AML other m 2013-02-04T04:31:24.72
IV.ASSB.HHE. ML:3.6 0.000405 0.8 AML other m 2013-02-04T04:31:16.72
IV.ASSB.HHN. ML:3.7 0.0004865 1.42 AML other m 2013-02-04T04:31:32.30
IV.ATCC.EHN. ML:3.9 0.000805 1.06 AML other m 2013-02-04T04:31:32.75
IV.ATCC.EHE. ML:3.9 0.0009465 0.56 AML other m 2013-02-04T04:31:28.44
IV.ATFO.HHE. ML:3.8 0.000787 0.98 AML other m 2013-02-04T04:31:12.56
IV.ATFO.HHN. ML:3.8 0.0006505 1.2 AML other m 2013-02-04T04:31:29.73
IV.ATMC.EHE. ML:3.9 0.000724 0.86 AML other m 2013-02-04T04:31:17.19
IV.ATMC.EHN. ML:3.8 0.00058 0.44 AML other m 2013-02-04T04:31:16.10
IV.ATTE.HHE. ML:3.6 0.0003995 1.2 AML other m 2013-02-04T04:31:31.33
IV.ATTE.HHN. ML:3.7 0.000442 1.04 AML other m 2013-02-04T04:31:31.25
IV.ATVO.HHE. ML:3.7 0.000451 0.98 AML other m 2013-02-04T04:31:16.54
IV.ATVO.HHN. ML:3.7 0.0004715 0.56 AML other m 2013-02-04T04:31:30.43
IV.BADI.EHN. ML:3.8 0.0005935 0.98 AML other m 2013-02-04T04:31:44.93
IV.BADI.EHE. ML:3.8 0.000525 1.12 AML other m 2013-02-04T04:31:20.75
MN.BLY.HHN. ML:4.2 0.00875 0.6 AML other m 2013-02-04T04:30:32.78
MN.BLY.HLN. ML:4.2 0.008945 0.6 AML other m 2013-02-04T04:30:33.09
MN.BLY.HHE. ML:4.2 0.00973 0.78 AML other m 2013-02-04T04:30:32.24
MN.BLY.HLE. ML:4.2 0.009825 0.78 AML other m 2013-02-04T04:30:32.25
SL.BOJS.BHE. ML:4 0.00228 0.6 AML other m 2013-02-04T04:31:01.85
SL.BOJS.BHN. ML:3.9 0.00159 1.2 AML other m 2013-02-04T04:30:52.75
IV.CAMP.HHN. ML:3.6 0.000574 0.54 AML other m 2013-02-04T04:31:03.07
IV.CAMP.HHE. ML:3.6 0.0006 1.12 AML other m 2013-02-04T04:31:18.58
IV.CDRU.HHE. ML:3.7 0.000381 1.1 AML other m 2013-02-04T04:31:46.75
IV.CDRU.HHN. ML:3.3 0.000159 1.54 AML other m 2013-02-04T04:31:44.08
IV.CERT.HHN. ML:3.6 0.0003265 0.8 AML other m 2013-02-04T04:31:44.13
IV.CERT.HHE. ML:3.8 0.000575 1.14 AML other m 2013-02-04T04:31:51.26
IV.CESI.HHE. ML:3.3 0.0002665 0.58 AML other m 2013-02-04T04:31:12.42
IV.CESI.HHN. ML:3.4 0.000315 1.16 AML other m 2013-02-04T04:31:23.69
IV.CING.HHE. ML:3.5 0.0005085 1.58 AML other m 2013-02-04T04:31:16.14
IV.CING.HHN. ML:3.4 0.000436 1.28 AML other m 2013-02-04T04:31:16.67
IV.CRE.HHE. ML:3.7 0.000348 1.06 AML other m 2013-02-04T04:31:22.27
IV.CRE.HHN. ML:3.8 0.000434 1.3 AML other m 2013-02-04T04:31:21.46
MN.DIVS.BHN. ML:3.8 0.001014 1 AML other m 2013-02-04T04:31:18.60
MN.DIVS.BHE. ML:3.8 0.000866 0.7 AML other m 2013-02-04T04:31:16.40
IV.FAGN.HHE. ML:4.3 0.002695 0.44 AML other m 2013-02-04T04:31:22.64
IV.FAGN.HHN. ML:4.1 0.001665 0.62 AML other m 2013-02-04T04:31:09.04
IV.FDMO.HHE. ML:3.6 0.0005025 0.94 AML other m 2013-02-04T04:31:17.04
IV.FDMO.HHN. ML:3.5 0.0004655 0.88 AML other m 2013-02-04T04:31:20.31
IV.FIAM.HHN. ML:3.7 0.0006 0.82 AML other m 2013-02-04T04:31:32.82
IV.FIAM.HHE. ML:3.8 0.000761 0.78 AML other m 2013-02-04T04:31:38.76
IV.FOSV.EHE. ML:3.6 0.0004235 0.66 AML other m 2013-02-04T04:31:36.95
IV.FOSV.EHN. ML:3.6 0.0004925 0.94 AML other m 2013-02-04T04:31:23.36
IV.FRON.EHE. ML:3.7 0.0005605 0.66 AML other m 2013-02-04T04:31:27.64
IV.FRON.EHN. ML:3.8 0.000705 0.92 AML other m 2013-02-04T04:31:33.91
CH.FUORN.HHE. ML:4 0.000173 0.74 AML other m 2013-02-04T04:32:40.07
CH.FUORN.HHN. ML:4 0.000181 1.46 AML other m 2013-02-04T04:32:44.90
SL.KOGS.BHN. ML:4.3 0.00202 0.7 AML other m 2013-02-04T04:31:31.83
SL.KOGS.BHE. ML:4.5 0.003145 1 AML other m 2013-02-04T04:31:28.83
SI.KOSI.HHE. ML:4.5 0.000853 1.26 AML other m 2013-02-04T04:32:18.72
SI.KOSI.HHN. ML:4.4 0.0006945 0.98 AML other m 2013-02-04T04:32:22.55
SL.LJU.BHE. ML:4.3 0.002265 0.5 AML other m 2013-02-04T04:31:19.30
SL.LJU.BHN. ML:4.4 0.0025 1.2 AML other m 2013-02-04T04:31:28.45
IV.LNSS.HHN. ML:3.8 0.0007595 1.24 AML other m 2013-02-04T04:31:32.31
IV.LNSS.HHE. ML:3.9 0.0010745 0.62 AML other m 2013-02-04T04:31:26.43
IV.LPEL.HHE. ML:3.8 0.00127 0.72 AML other m 2013-02-04T04:31:20.62
IV.LPEL.HHN. ML:3.7 0.000801 0.8 AML other m 2013-02-04T04:31:18.65
IV.MABI.HHE. ML:3.8 0.0001305 1.54 AML other m 2013-02-04T04:32:44.26
IV.MABI.HHN. ML:3.9 0.0001635 0.88 AML other m 2013-02-04T04:32:42.15
IV.MAGA.HHE. ML:4.5 0.0008555 0.58 AML other m 2013-02-04T04:32:28.25
IV.MAGA.HHN. ML:4.3 0.0005005 1.58 AML other m 2013-02-04T04:32:25.03
IV.MIDA.HNN. ML:3.8 0.000954 0.8 AML other m 2013-02-04T04:31:32.63
IV.MIDA.HHN. ML:3.8 0.000865 0.76 AML other m 2013-02-04T04:31:32.61
IV.MIDA.HHE. ML:3.8 0.0008975 0.9 AML other m 2013-02-04T04:31:36.90
IV.MIDA.HNE. ML:3.8 0.0008955 0.92 AML other m 2013-02-04T04:31:36.91
SI.MOSI.HHE. ML:4.8 0.00121 0.92 AML other m 2013-02-04T04:32:41.37
SI.MOSI.HHN. ML:4.8 0.00128 0.9 AML other m 2013-02-04T04:32:46.45
IV.MPAG.EHN. ML:3.7 0.0006555 0.88 AML other m 2013-02-04T04:31:02.87
IV.MPAG.EHE. ML:3.7 0.0005885 0.92 AML other m 2013-02-04T04:31:32.18
IV.MPAG.HNE. ML:3.7 0.0005975 0.92 AML other m 2013-02-04T04:31:32.19
IV.MPAG.HNN. ML:3.7 0.0006125 1.52 AML other m 2013-02-04T04:31:04.98
IV.MRB1.HHE. ML:3.9 0.000975 0.72 AML other m 2013-02-04T04:31:43.97
IV.MRB1.HNN. ML:4 0.001285 1.58 AML other m 2013-02-04T04:31:30.92
IV.MRB1.HHN. ML:4 0.001296 0.66 AML other m 2013-02-04T04:31:44.25
IV.MRB1.HNE. ML:3.9 0.001008 0.72 AML other m 2013-02-04T04:31:43.61
IV.MSAG.HNE. ML:4 0.0023 0.52 AML other m 2013-02-04T04:31:02.34
IV.MSAG.HHN. ML:4.1 0.003595 0.48 AML other m 2013-02-04T04:30:56.60
IV.MSAG.HNN. ML:4.1 0.003545 0.5 AML other m 2013-02-04T04:30:56.61
IV.MSAG.HHE. ML:3.9 0.002285 0.52 AML other m 2013-02-04T04:31:02.33
IV.MURB.HHN. ML:4 0.0011025 0.3 AML other m 2013-02-04T04:31:19.67
IV.MURB.HHE. ML:4.2 0.001685 0.28 AML other m 2013-02-04T04:31:14.34
IV.MURB.HNN. ML:4.1 0.001165 1.04 AML other m 2013-02-04T04:31:29.84
IV.MURB.HNE. ML:4.2 0.001605 1.02 AML other m 2013-02-04T04:31:21.76
IV.NOCI.HHE. ML:4 0.0010545 0.96 AML other m 2013-02-04T04:31:31.89
IV.NOCI.HHN. ML:4.1 0.00137 0.46 AML other m 2013-02-04T04:31:06.89
MN.PDG.HHE. ML:4 0.002025 0.44 AML other m 2013-02-04T04:31:06.85
MN.PDG.HLE. ML:4.2 0.0026 0.42 AML other m 2013-02-04T04:31:06.86
MN.PDG.HLN. ML:4.3 0.00324 1.04 AML other m 2013-02-04T04:31:09.64
MN.PDG.HHN. ML:4.2 0.002535 1.04 AML other m 2013-02-04T04:31:09.64
IV.PE3.EHE. ML:4.2 0.00168 1.2 AML other m 2013-02-04T04:31:09.79
IV.PE3.EHN. ML:4.2 0.001475 0.4 AML other m 2013-02-04T04:31:15.94
IV.PESA.HHN. ML:3.9 0.00111 0.94 AML other m 2013-02-04T04:31:13.36
IV.PESA.HHE. ML:3.9 0.0011055 1.24 AML other m 2013-02-04T04:31:47.03
IV.PIEI.HHE. ML:3.7 0.000505 1.46 AML other m 2013-02-04T04:31:09.05
IV.PIEI.HHN. ML:3.4 0.000293 0.36 AML other m 2013-02-04T04:31:23.74
IV.PLMA.HHN. ML:3.9 0.0001665 1.36 AML other m 2013-02-04T04:31:56.88
IV.PLMA.HHE. ML:3.6 9.55E-5 1.1 AML other m 2013-02-04T04:31:58.79
NI.POLC.HHE. ML:4.6 0.002165 0.84 AML other m 2013-02-04T04:31:57.47
NI.POLC.HHN. ML:4.6 0.00207 0.56 AML other m 2013-02-04T04:31:51.74
IV.PTCC.HHN. ML:4 0.000553 1.58 AML other m 2013-02-04T04:31:48.57
IV.PTCC.HHE. ML:4 0.0005845 1.5 AML other m 2013-02-04T04:31:48.33
AC.PUK.HHE. ML:4.2 0.001615 0.72 AML other m 2013-02-04T04:31:30.76
AC.PUK.HHN. ML:4.2 0.001825 1.58 AML other m 2013-02-04T04:31:33.22
SI.RISI.HHE. ML:4.7 0.00141 0.5 AML other m 2013-02-04T04:32:20.84
SI.RISI.HHN. ML:4.5 0.000917 0.9 AML other m 2013-02-04T04:32:15.14
SI.ROSI.HHN. ML:4.5 0.000701 1.06 AML other m 2013-02-04T04:32:32.47
SI.ROSI.HHE. ML:4.6 0.000803 1.12 AML other m 2013-02-04T04:32:26.12
NI.SABO.HHN. ML:4.5 0.00272 1.04 AML other m 2013-02-04T04:31:31.19
NI.SABO.HHE. ML:4.4 0.002145 0.82 AML other m 2013-02-04T04:31:31.07
IV.SCTE.HHE. ML:3.7 0.0002265 1.38 AML other m 2013-02-04T04:31:32.23
IV.SCTE.HHN. ML:3.7 0.000249 0.98 AML other m 2013-02-04T04:31:31.70
IV.SENI.HNN. ML:4.3 0.00363 0.3 AML other m 2013-02-04T04:30:58.28
IV.SENI.HNE. ML:4.3 0.00312 0.72 AML other m 2013-02-04T04:30:59.89
IV.SGRT.HHE. ML:4 0.002645 0.8 AML other m 2013-02-04T04:31:05.48
IV.SGRT.HHN. ML:3.9 0.00203 0.7 AML other m 2013-02-04T04:31:05.05
IV.SMA1.EHE. ML:3.8 0.00104 1.02 AML other m 2013-02-04T04:31:21.06
IV.SMA1.EHN. ML:3.9 0.0011535 1 AML other m 2013-02-04T04:31:20.73
IV.SNAL.HHE. ML:4 0.001235 1.58 AML other m 2013-02-04T04:31:38.72
IV.SNAL.HHN. ML:4.1 0.001495 0.82 AML other m 2013-02-04T04:31:40.01
IV.SNTG.HHE. ML:3.5 0.000404 0.84 AML other m 2013-02-04T04:31:29.28
IV.SNTG.HHN. ML:3.5 0.000443 1.04 AML other m 2013-02-04T04:31:27.77
IV.STAL.HHN. ML:4.4 0.0012905 1.42 AML other m 2013-02-04T04:31:54.29
IV.STAL.HNN. ML:4.3 0.000946 0.78 AML other m 2013-02-04T04:32:02.43
IV.STAL.HNE. ML:4.5 0.00159 1.52 AML other m 2013-02-04T04:31:53.45
IV.STAL.HHE. ML:4.6 0.00181 1.48 AML other m 2013-02-04T04:31:53.46
IV.VAGA.HNN. ML:3.9 0.00093 1.12 AML other m 2013-02-04T04:31:29.46
IV.VAGA.HHN. ML:3.9 0.000972 1.1 AML other m 2013-02-04T04:31:29.46
IV.VAGA.HNE. ML:3.6 0.000538 1.14 AML other m 2013-02-04T04:31:26.46
IV.VAGA.HHE. ML:3.7 0.0005615 1.16 AML other m 2013-02-04T04:31:26.46
MN.VTS.BHE. ML:3.6 8.845E-5 0.4 AML other m 2013-02-04T04:32:07.63
MN.VTS.BHN. ML:3.8 0.000134 1 AML other m 2013-02-04T04:32:39.18
IV.VVLD.HHN. ML:3.7 0.0006465 0.96 AML other m 2013-02-04T04:31:26.44
IV.VVLD.HHE. ML:3.8 0.000778 0.74 AML other m 2013-02-04T04:31:33.25
TDMT - Time Domain Moment Tensor
Meccanismi focali nell'area
Download
Tipo Descrizione Link
QuakeML - small Event, Origin, FocalMechanism Download
QuakeML - full Event, Origin, FocalMechanism, Amplitude, Arrival, Pick, Station Magnitude Download